| time (UTC) | temp F | wind direction | speed knots | gust knots | rain 1hr in | rain 24hr in | rain mn in | humidity % | barometer mb |
| 20260504000032 | 58 | 287 | 4.3 | 12.2 | 0.01 | 0.08 | 0.01 | 94 | 1011.5 |
| 20260503234531 | 57 | 318 | 3.5 | 9.6 | 0.01 | 0.08 | 0.01 | 94 | 1011.6 |
| 20260503233029 | 57 | 12 | 2.6 | 8.7 | 0.01 | 0.08 | 0.01 | 94 | 1011.6 |
| 20260503231527 | 57 | 267 | 4.3 | 14.8 | 0.02 | 0.08 | 0.01 | 94 | 1011.6 |
| 20260503230027 | 57 | 293 | 3.5 | 8.7 | 0.02 | 0.07 | 0.00 | 94 | 1011.7 |
| 20260503224527 | 57 | 337 | 3.5 | 8.7 | 0.02 | 0.07 | 0.00 | 94 | 1011.7 |
| 20260503223023 | 57 | 289 | 6.1 | 16.5 | 0.02 | 0.07 | 0.00 | 94 | 1011.7 |
| 20260503221522 | 57 | 335 | 1.7 | 9.6 | 0.01 | 0.06 | 0.06 | 94 | 1011.8 |
| 20260503220021 | 57 | 356 | 1.7 | 9.6 | 0.00 | 0.06 | 0.06 | 94 | 1011.6 |
| 20260503214536 | 57 | 283 | 2.6 | 7.8 | 0.00 | 0.06 | 0.06 | 94 | 1011.5 |
| 20260503213019 | 57 | 343 | 0.9 | 8.7 | 0.00 | 0.06 | 0.06 | 94 | 1011.5 |
| 20260503211518 | 57 | 335 | 1.7 | 8.7 | 0.00 | 0.06 | 0.06 | 94 | 1011.6 |
| 20260503210020 | 57 | 312 | 1.7 | 13.9 | 0.00 | 0.06 | 0.06 | 94 | 1011.3 |
| 20260503204519 | 57 | 352 | 2.6 | 7.0 | 0.00 | 0.06 | 0.06 | 94 | 1011.0 |
| 20260503203018 | 57 | 14 | 1.7 | 8.7 | 0.00 | 0.06 | 0.06 | 94 | 1010.9 |
| 20260503201517 | 57 | 340 | 1.7 | 9.6 | 0.00 | 0.06 | 0.06 | 95 | 1011.0 |
| 20260503200017 | 57 | 6 | 3.5 | 9.6 | 0.00 | 0.06 | 0.06 | 95 | 1010.9 |
| 20260503194517 | 57 | 300 | 1.7 | 6.1 | 0.00 | 0.06 | 0.06 | 95 | 1011.0 |
| 20260503193017 | 56 | 326 | 1.7 | 3.5 | 0.00 | 0.06 | 0.06 | 95 | 1010.9 |
| 20260503191518 | 56 | 279 | 0.9 | 3.5 | 0.00 | 0.06 | 0.06 | 95 | 1011.0 |
| 20260503190014 | 56 | 298 | 1.7 | 5.2 | 0.00 | 0.06 | 0.06 | 95 | 1011.1 |
| 20260503184513 | 56 | 305 | 0.0 | 1.7 | 0.00 | 0.06 | 0.06 | 94 | 1011.3 |
| 20260503183013 | 56 | 286 | 0.0 | 3.5 | 0.00 | 0.06 | 0.06 | 94 | 1011.4 |
| 20260503181511 | 56 | 308 | 1.7 | 6.1 | 0.00 | 0.06 | 0.06 | 94 | 1011.6 |
| 20260503180012 | 56 | 341 | 1.7 | 7.0 | 0.00 | 0.06 | 0.06 | 94 | 1011.5 |
| 20260503174515 | 56 | 339 | 0.0 | 5.2 | 0.00 | 0.06 | 0.06 | 94 | 1011.7 |
| 20260503173013 | 56 | 330 | 0.9 | 6.1 | 0.00 | 0.06 | 0.06 | 94 | 1011.9 |
| 20260503171509 | 56 | 314 | 1.7 | 6.1 | 0.00 | 0.06 | 0.06 | 94 | 1011.9 |
| 20260503150110 | 58 | 281 | 0.9 | 7.8 | 0.06 | 0.06 | 0.06 | 93 | 1012.9 |